When you browse on this site, cookies collect data to enhance your experience and personalize the content and advertising you see.
Visit our Privacy Policy to learn more. By continuing to use the site, you agree to this use of cookies and data.
  • In Czech Republic
  • List of Countries
  • For 7 days
  • Water Temperature
  • Weather Map
  • Weather Widgets
  • user-avatar
    Login

    Hourly Weather Heidelberg

    Today, 27 February, Thursday

    Time Temperature Precipitation Wind Pressure Humidity
    00:00 -1°C° 0 mm 4 mps 727 mmHg 83%
    01:00 -1°C° 0 mm 4 mps 727 mmHg 85%
    02:00 -1°C° 0.1 mm 4 mps 727 mmHg 86%
    03:00 -1°C° 0.1 mm 4 mps 727 mmHg 87%
    04:00 -1°C° 0.1 mm 4 mps 727 mmHg 88%
    05:00 -1°C° 0 mm 4 mps 727 mmHg 87%
    06:00 -1°C° 0 mm 4 mps 727 mmHg 85%
    07:00 -1°C° 0 mm 4 mps 726 mmHg 84%
    08:00 -1°C° 0 mm 4 mps 725 mmHg 81%
    09:00 0°C° 0 mm 4 mps 725 mmHg 78%
    10:00 0°C° 0 mm 4 mps 724 mmHg 76%
    11:00 +1°C° 0.1 mm 4 mps 722 mmHg 75%
    12:00 +1°C° 0.1 mm 4 mps 721 mmHg 75%
    13:00 +1°C° 0 mm 4 mps 720 mmHg 75%
    14:00 0°C° 1.9 mm 5 mps 718 mmHg 82%
    15:00 -2°C° 1.9 mm 6 mps 716 mmHg 89%
    16:00 -3°C° 1.9 mm 6 mps 714 mmHg 96%
    17:00 -2°C° 2.3 mm 7 mps 714 mmHg 94%
    18:00 -2°C° 2.3 mm 8 mps 714 mmHg 93%
    19:00 -1°C° 2.3 mm 8 mps 714 mmHg 91%
    20:00 -2°C° 0.5 mm 8 mps 717 mmHg 92%
    21:00 -2°C° 0.5 mm 7 mps 719 mmHg 93%
    22:00 -2°C° 0.5 mm 7 mps 721 mmHg 93%
    23:00 -2°C° 0.1 mm 7 mps 724 mmHg 91%

    Tomorrow, 28 February, Friday

    Time Temperature Precipitation Wind Pressure Humidity
    00:00 -2°C° 0.1 mm 6 mps 726 mmHg 88%
    01:00 -2°C° 0.1 mm 6 mps 728 mmHg 85%
    02:00 -1°C° 0 mm 5 mps 729 mmHg 84%
    03:00 -2°C° 0 mm 5 mps 730 mmHg 83%
    04:00 -2°C° 0 mm 5 mps 731 mmHg 82%
    05:00 -2°C° 0 mm 4 mps 731 mmHg 84%
    06:00 -3°C° 0 mm 4 mps 732 mmHg 86%
    07:00 -3°C° 0 mm 4 mps 733 mmHg 88%
    08:00 -3°C° 0 mm 4 mps 734 mmHg 86%
    09:00 -2°C° 0 mm 4 mps 734 mmHg 85%
    10:00 0°C° 0 mm 3 mps 735 mmHg 84%
    11:00 0°C° 0 mm 4 mps 735 mmHg 80%
    12:00 +1°C° 0 mm 4 mps 735 mmHg 77%
    13:00 +3°C° 0 mm 4 mps 735 mmHg 73%
    14:00 +3°C° 0 mm 3 mps 734 mmHg 73%
    15:00 +3°C° 0 mm 3 mps 734 mmHg 72%
    16:00 +5°C° 0 mm 2 mps 733 mmHg 71%
    17:00 +4°C° 0 mm 2 mps 732 mmHg 73%
    18:00 +3°C° 0 mm 2 mps 732 mmHg 75%
    19:00 +3°C° 0 mm 2 mps 731 mmHg 77%
    20:00 +3°C° 0 mm 2 mps 730 mmHg 77%
    21:00 +3°C° 0 mm 2 mps 730 mmHg 78%
    22:00 +2°C° 0 mm 3 mps 729 mmHg 78%
    23:00 +3°C° 0 mm 2 mps 729 mmHg 78%

    Day after tomorrow, 29 February, Saturday

    Time Temperature Precipitation Wind Pressure Humidity
    00:00 +3°C° 0 mm 2 mps 728 mmHg 79%
    01:00 +3°C° 0 mm 2 mps 727 mmHg 79%
    02:00 +3°C° 0 mm 2 mps 726 mmHg 80%
    03:00 +3°C° 0 mm 2 mps 725 mmHg 81%
    04:00 +4°C° 0 mm 2 mps 725 mmHg 83%
    05:00 +4°C° 0.1 mm 2 mps 724 mmHg 84%
    06:00 +4°C° 0.1 mm 2 mps 723 mmHg 86%
    07:00 +4°C° 0.1 mm 2 mps 722 mmHg 88%
    08:00 +5°C° 0.1 mm 2 mps 722 mmHg 86%
    09:00 +6°C° 0.1 mm 2 mps 721 mmHg 85%
    10:00 +7°C° 0.1 mm 2 mps 720 mmHg 83%
    11:00 +8°C° 0 mm 3 mps 720 mmHg 77%
    12:00 +8°C° 0 mm 4 mps 719 mmHg 71%
    13:00 +10°C° 0 mm 5 mps 719 mmHg 65%
    14:00 +9°C° 0.4 mm 5 mps 719 mmHg 71%
    15:00 +8°C° 0.4 mm 5 mps 718 mmHg 77%
    16:00 +8°C° 0.4 mm 5 mps 718 mmHg 83%
    17:00 +8°C° 0.6 mm 6 mps 718 mmHg 82%
    18:00 +7°C° 0.6 mm 6 mps 718 mmHg 82%
    19:00 +6°C° 0.6 mm 7 mps 719 mmHg 82%
    20:00 +5°C° 0.2 mm 6 mps 720 mmHg 81%
    21:00 +5°C° 0.2 mm 5 mps 721 mmHg 81%
    22:00 +4°C° 0.2 mm 4 mps 722 mmHg 81%
    23:00 +4°C° 0 mm 4 mps 722 mmHg 81%

    1 March, Sunday

    Time Temperature Precipitation Wind Pressure Humidity
    00:00 +3°C° 0 mm 4 mps 722 mmHg 82%
    01:00 +3°C° 0 mm 4 mps 722 mmHg 82%
    02:00 +3°C° 0 mm 4 mps 722 mmHg 82%
    03:00 +3°C° 0 mm 4 mps 722 mmHg 82%
    04:00 +1°C° 0 mm 4 mps 722 mmHg 81%
    05:00 +1°C° 0.1 mm 5 mps 722 mmHg 81%
    06:00 +2°C° 0.1 mm 5 mps 722 mmHg 80%
    07:00 +2°C° 0.1 mm 5 mps 722 mmHg 80%
    08:00 +2°C° 0 mm 5 mps 722 mmHg 77%
    09:00 +2°C° 0 mm 5 mps 722 mmHg 75%
    10:00 +3°C° 0 mm 6 mps 723 mmHg 73%
    11:00 +5°C° 0.1 mm 5 mps 722 mmHg 69%
    12:00 +5°C° 0.1 mm 5 mps 722 mmHg 65%
    13:00 +6°C° 0.1 mm 5 mps 722 mmHg 61%
    14:00 +7°C° 0 mm 5 mps 722 mmHg 59%
    15:00 +7°C° 0 mm 4 mps 721 mmHg 57%
    16:00 +8°C° 0 mm 3 mps 720 mmHg 54%
    17:00 +7°C° 0 mm 3 mps 720 mmHg 60%
    18:00 +5°C° 0 mm 3 mps 719 mmHg 67%
    19:00 +4°C° 0 mm 3 mps 719 mmHg 73%
    20:00 +4°C° 0.3 mm 3 mps 718 mmHg 76%
    21:00 +4°C° 0.3 mm 4 mps 718 mmHg 79%
    22:00 +5°C° 0.3 mm 5 mps 717 mmHg 82%
    23:00 +3°C° 0.3 mm 6 mps 718 mmHg 81%

    2 March, Monday

    Time Temperature Precipitation Wind Pressure Humidity
    00:00 +3°C° 0.3 mm 7 mps 718 mmHg 80%
    01:00 +1°C° 0.3 mm 8 mps 718 mmHg 79%
    02:00 +2°C° 0 mm 7 mps 719 mmHg 79%
    03:00 +2°C° 0 mm 6 mps 719 mmHg 78%
    04:00 +1°C° 0 mm 5 mps 719 mmHg 77%
    05:00 +1°C° 0 mm 4 mps 719 mmHg 81%
    06:00 +1°C° 0 mm 3 mps 719 mmHg 84%
    07:00 +2°C° 0 mm 2 mps 720 mmHg 87%
    08:00 +3°C° 0 mm 2 mps 719 mmHg 82%
    09:00 +4°C° 0 mm 2 mps 719 mmHg 78%
    10:00 +5°C° 0 mm 2 mps 719 mmHg 74%
    11:00 +4°C° 0.3 mm 3 mps 719 mmHg 78%
    12:00 +4°C° 0.3 mm 3 mps 718 mmHg 81%
    13:00 +4°C° 0.3 mm 3 mps 718 mmHg 85%
    14:00 +4°C° 0.5 mm 3 mps 718 mmHg 84%
    15:00 +4°C° 0.5 mm 3 mps 718 mmHg 83%
    16:00 +5°C° 0.5 mm 3 mps 718 mmHg 82%
    17:00 +4°C° 0.8 mm 3 mps 718 mmHg 84%
    18:00 +4°C° 0.8 mm 4 mps 719 mmHg 85%
    19:00 +3°C° 0.8 mm 4 mps 719 mmHg 87%
    20:00 +3°C° 0.2 mm 4 mps 720 mmHg 85%
    21:00 +1°C° 0.2 mm 5 mps 720 mmHg 83%
    22:00 +1°C° 0.2 mm 5 mps 721 mmHg 81%
    23:00 +1°C° 0 mm 4 mps 722 mmHg 84%

    3 March, Tuesday

    Time Temperature Precipitation Wind Pressure Humidity
    00:00 +1°C° 0 mm 3 mps 722 mmHg 86%
    01:00 +2°C° 0 mm 2 mps 723 mmHg 88%
    02:00 +1°C° 0 mm 2 mps 723 mmHg 89%
    03:00 +1°C° 0 mm 2 mps 723 mmHg 90%
    04:00 +1°C° 0 mm 2 mps 723 mmHg 91%
    05:00 -1°C° 0 mm 2 mps 724 mmHg 91%
    06:00 -1°C° 0 mm 2 mps 725 mmHg 91%
    07:00 -1°C° 0 mm 2 mps 725 mmHg 92%
    08:00 +1°C° 0 mm 2 mps 726 mmHg 88%
    09:00 +1°C° 0 mm 3 mps 727 mmHg 85%
    10:00 +2°C° 0 mm 3 mps 727 mmHg 81%
    11:00 +3°C° 0.1 mm 3 mps 727 mmHg 77%
    12:00 +3°C° 0.1 mm 4 mps 727 mmHg 74%
    13:00 +4°C° 0.1 mm 4 mps 728 mmHg 70%
    14:00 +4°C° 0.1 mm 4 mps 727 mmHg 66%
    15:00 +5°C° 0.1 mm 4 mps 727 mmHg 62%
    16:00 +5°C° 0.1 mm 4 mps 727 mmHg 58%
    17:00 +4°C° 0.1 mm 3 mps 727 mmHg 63%
    18:00 +4°C° 0.1 mm 2 mps 727 mmHg 68%
    19:00 +3°C° 0.1 mm 2 mps 727 mmHg 73%
    20:00 +3°C° 0 mm 2 mps 727 mmHg 75%
    21:00 +3°C° 0 mm 2 mps 727 mmHg 77%
    22:00 +2°C° 0 mm 2 mps 728 mmHg 79%
    23:00 +2°C° 0 mm 2 mps 727 mmHg 80%
    Show more